TimeEDT,TemperatureF,Dew PointF,Humidity,Sea Level PressureIn,VisibilityMPH,Wind Direction,Wind SpeedMPH,Gust SpeedMPH,PrecipitationIn,Events,Conditions,WindDirDegrees,DateUTC
12:54 AM,42.1,37.0,82,30.06,10.0,North,4.6,-,N/A,,Clear,360,2013-04-06 04:54:00
1:54 AM,42.1,37.9,85,30.07,10.0,North,3.5,-,N/A,,Clear,360,2013-04-06 05:54:00
2:54 AM,43.0,37.0,80,30.08,10.0,NNW,3.5,-,N/A,,Clear,330,2013-04-06 06:54:00
3:54 AM,42.1,36.0,79,30.08,10.0,Calm,Calm,-,N/A,,Clear,0,2013-04-06 07:54:00
4:54 AM,39.0,36.0,89,30.10,10.0,North,4.6,-,N/A,,Clear,360,2013-04-06 08:54:00
5:54 AM,39.0,36.0,89,30.12,10.0,Calm,Calm,-,N/A,,Clear,0,2013-04-06 09:54:00
6:54 AM,37.0,34.0,89,30.15,10.0,Calm,Calm,-,N/A,,Clear,0,2013-04-06 10:54:00
7:54 AM,39.9,39.0,97,30.18,9.0,Calm,Calm,-,N/A,,Clear,0,2013-04-06 11:54:00
8:54 AM,51.1,39.9,66,30.21,10.0,NE,4.6,-,N/A,,Clear,50,2013-04-06 12:54:00
9:54 AM,55.9,36.0,47,30.21,10.0,East,5.8,-,N/A,,Clear,100,2013-04-06 13:54:00
10:54 AM,59.0,34.0,39,30.22,10.0,Variable,4.6,-,N/A,,Clear,0,2013-04-06 14:54:00
11:54 AM,64.0,32.0,30,30.22,10.0,ESE,9.2,-,N/A,,Clear,120,2013-04-06 15:54:00
12:54 PM,64.9,32.0,29,30.22,10.0,ESE,6.9,-,N/A,,Clear,120,2013-04-06 16:54:00
1:54 PM,66.0,32.0,28,30.21,10.0,East,5.8,-,N/A,,Clear,80,2013-04-06 17:54:00
2:54 PM,68.0,32.0,26,30.18,10.0,North,-9999.0,-,N/A,,Clear,0,2013-04-06 18:54:00
3:54 PM,68.0,33.1,27,30.16,10.0,ESE,8.1,-,N/A,,Clear,120,2013-04-06 19:54:00
4:54 PM,69.1,33.1,26,30.15,10.0,East,6.9,-,N/A,,Clear,80,2013-04-06 20:54:00
5:54 PM,68.0,33.1,27,30.15,10.0,Calm,Calm,-,N/A,,Clear,0,2013-04-06 21:54:00
6:54 PM,66.9,34.0,30,30.16,10.0,SE,3.5,-,N/A,,Clear,130,2013-04-06 22:54:00
7:54 PM,62.1,37.9,41,30.17,10.0,SE,3.5,-,N/A,,Clear,130,2013-04-06 23:54:00
8:54 PM,59.0,39.0,48,30.18,10.0,Calm,Calm,-,N/A,,Clear,0,2013-04-07 00:54:00
9:54 PM,55.0,39.9,57,30.19,10.0,ESE,3.5,-,N/A,,Clear,120,2013-04-07 01:54:00
10:54 PM,55.0,39.0,55,30.20,10.0,SE,3.5,-,N/A,,Clear,130,2013-04-07 02:54:00
11:54 PM,57.0,41.0,55,30.20,10.0,SSE,8.1,-,N/A,,Clear,160,2013-04-07 03:54:00